Location: Zagreb
(45.8000°N, 16.0000°E)
Time: 08:25:41
(UTC+02:00)

Courier 1B - Pass Details

Date: 18 August 2020
Orbit: 962 x 1209 km, 28.3° (Epoch: 27 September)

Event Time Altitude Azimuth Distance (km) Brightness Sun altitude
Rises 19:26:20 0° 247° (WSW) 4,076 11.7 4.6°
Reaches altitude 10° 19:30:16 10° 230° (SW) 3,082 10.7 3.9°
Maximum altitude 19:35:01 18° 191° (S) 2,491 9.6 3.1°
Drops below altitude 10° 19:39:38 10° 152° (SSE) 2,976 9.6 2.3°
Sets 19:43:20 0° 134° (SE) 3,883 10.1 1.7°
